Year,Month,Day,Hour,Minute,Value (Times are PST for temperature in C)
2015,08,10,00,00,16.80
2015,08,10,00,01,16.70
2015,08,10,00,02,16.70
2015,08,10,00,03,16.70
2015,08,10,00,04,16.70
2015,08,10,00,05,16.60
2015,08,10,00,06,16.60
2015,08,10,00,07,16.60
2015,08,10,00,08,16.60
2015,08,10,00,09,16.60
2015,08,10,00,10,16.60
2015,08,10,00,11,16.60
2015,08,10,00,12,16.60
2015,08,10,00,13,16.60
2015,08,10,00,14,16.60
2015,08,10,00,15,16.60
2015,08,10,00,16,16.60
2015,08,10,00,17,16.60
2015,08,10,00,18,16.60
2015,08,10,00,19,16.60
2015,08,10,00,20,16.50
2015,08,10,00,21,16.50
2015,08,10,00,22,16.40
2015,08,10,00,23,16.40
2015,08,10,00,24,16.40
2015,08,10,00,25,16.40
2015,08,10,00,26,16.30
2015,08,10,00,27,16.30
2015,08,10,00,28,16.30
2015,08,10,00,29,16.30
2015,08,10,00,30,16.30
2015,08,10,00,31,16.30
2015,08,10,00,32,16.20
2015,08,10,00,33,16.20
2015,08,10,00,34,16.20
2015,08,10,00,35,16.20
2015,08,10,00,36,16.10
2015,08,10,00,37,16.10
2015,08,10,00,38,16.10
2015,08,10,00,39,16.10
2015,08,10,00,40,16.00
2015,08,10,00,41,16.00
2015,08,10,00,42,16.00
2015,08,10,00,43,15.90
2015,08,10,00,44,15.90
2015,08,10,00,45,15.90
2015,08,10,00,46,15.90
2015,08,10,00,47,15.90
2015,08,10,00,48,15.90
2015,08,10,00,49,15.90
2015,08,10,00,50,15.80
2015,08,10,00,51,15.80
2015,08,10,00,52,15.80
2015,08,10,00,53,15.80
2015,08,10,00,54,15.80
2015,08,10,00,55,15.80
2015,08,10,00,56,15.90
2015,08,10,00,57,15.90
2015,08,10,00,58,15.90
2015,08,10,00,59,16.00
2015,08,10,01,00,16.00
2015,08,10,01,01,16.10
2015,08,10,01,02,16.10
2015,08,10,01,03,16.10
2015,08,10,01,04,16.20
2015,08,10,01,05,16.20
2015,08,10,01,06,16.30
2015,08,10,01,07,16.30
2015,08,10,01,08,16.40
2015,08,10,01,09,16.40
2015,08,10,01,10,16.50
2015,08,10,01,11,16.50
2015,08,10,01,12,16.60
2015,08,10,01,13,16.60
2015,08,10,01,14,16.60
2015,08,10,01,15,16.60
2015,08,10,01,16,16.60
2015,08,10,01,17,16.60
2015,08,10,01,18,16.60
2015,08,10,01,19,16.60
2015,08,10,01,20,16.60
2015,08,10,01,21,16.60
2015,08,10,01,22,16.50
2015,08,10,01,23,16.50
2015,08,10,01,24,16.50
2015,08,10,01,25,16.50
2015,08,10,01,26,16.50
2015,08,10,01,27,16.50
2015,08,10,01,28,16.50
2015,08,10,01,29,16.40
2015,08,10,01,30,16.40
2015,08,10,01,31,16.40
2015,08,10,01,32,16.40
2015,08,10,01,33,16.40
2015,08,10,01,34,16.40
2015,08,10,01,35,16.40
2015,08,10,01,36,16.40
2015,08,10,01,37,16.40
2015,08,10,01,38,16.40
2015,08,10,01,39,16.40
2015,08,10,01,40,16.30
2015,08,10,01,41,16.30
2015,08,10,01,42,16.30
2015,08,10,01,43,16.30
2015,08,10,01,44,16.30
2015,08,10,01,45,16.20
2015,08,10,01,46,16.20
2015,08,10,01,47,16.20
2015,08,10,01,48,16.20
2015,08,10,01,49,16.20
2015,08,10,01,50,16.20
2015,08,10,01,51,16.20
2015,08,10,01,52,16.10
2015,08,10,01,53,16.10
2015,08,10,01,54,16.10
2015,08,10,01,55,16.10
2015,08,10,01,56,16.10
2015,08,10,01,57,16.10
2015,08,10,01,58,16.10
2015,08,10,01,59,16.10
2015,08,10,02,00,16.10
2015,08,10,02,01,16.10
2015,08,10,02,02,16.00
2015,08,10,02,03,16.00
2015,08,10,02,04,15.90
2015,08,10,02,05,15.90
2015,08,10,02,06,15.80
2015,08,10,02,07,15.80
2015,08,10,02,08,15.80
2015,08,10,02,09,15.80
2015,08,10,02,10,15.70
2015,08,10,02,11,15.70
2015,08,10,02,12,15.70
2015,08,10,02,13,15.70
2015,08,10,02,14,15.70
2015,08,10,02,15,15.70
2015,08,10,02,16,15.70
2015,08,10,02,17,15.60
2015,08,10,02,18,15.60
2015,08,10,02,19,15.60
2015,08,10,02,20,15.60
2015,08,10,02,21,15.50
2015,08,10,02,22,15.50
2015,08,10,02,23,15.50
2015,08,10,02,24,15.50
2015,08,10,02,25,15.50
2015,08,10,02,26,15.50
2015,08,10,02,27,15.40
2015,08,10,02,28,15.40
2015,08,10,02,29,15.40
2015,08,10,02,30,15.40
2015,08,10,02,31,15.40
2015,08,10,02,32,15.40
2015,08,10,02,33,15.40
2015,08,10,02,34,15.40
2015,08,10,02,35,15.40
2015,08,10,02,36,15.40
2015,08,10,02,37,15.40
2015,08,10,02,38,15.40
2015,08,10,02,39,15.40
2015,08,10,02,40,15.40
2015,08,10,02,41,15.40
2015,08,10,02,42,15.40
2015,08,10,02,43,15.40
2015,08,10,02,44,15.40
2015,08,10,02,45,15.40
2015,08,10,02,46,15.40
2015,08,10,02,47,15.30
2015,08,10,02,48,15.30
2015,08,10,02,49,15.30
2015,08,10,02,50,15.30
2015,08,10,02,51,15.30
2015,08,10,02,52,15.20
2015,08,10,02,53,15.20
2015,08,10,02,54,15.20
2015,08,10,02,55,15.20
2015,08,10,02,56,15.20
2015,08,10,02,57,15.20
2015,08,10,02,58,15.20
2015,08,10,02,59,15.10
2015,08,10,03,00,15.00
2015,08,10,03,01,15.00
2015,08,10,03,02,15.00
2015,08,10,03,03,15.00
2015,08,10,03,04,15.00
2015,08,10,03,05,15.00
2015,08,10,03,06,15.00
2015,08,10,03,07,15.00
2015,08,10,03,08,15.10
2015,08,10,03,09,15.10
2015,08,10,03,10,15.20
2015,08,10,03,11,15.20
2015,08,10,03,12,15.20
2015,08,10,03,13,15.20
2015,08,10,03,14,15.30
2015,08,10,03,15,15.20
2015,08,10,03,16,15.20
2015,08,10,03,17,15.20
2015,08,10,03,18,15.10
2015,08,10,03,19,15.10
2015,08,10,03,20,15.00
2015,08,10,03,21,15.00
2015,08,10,03,22,15.00
2015,08,10,03,23,15.00
2015,08,10,03,24,14.90
2015,08,10,03,25,14.80
2015,08,10,03,26,14.80
2015,08,10,03,27,14.70
2015,08,10,03,28,14.70
2015,08,10,03,29,14.70
2015,08,10,03,30,14.60
2015,08,10,03,31,14.60
2015,08,10,03,32,14.60
2015,08,10,03,33,14.60
2015,08,10,03,34,14.60
2015,08,10,03,35,14.60
2015,08,10,03,36,14.60
2015,08,10,03,37,14.60
2015,08,10,03,38,14.60
2015,08,10,03,39,14.60
2015,08,10,03,40,14.60
2015,08,10,03,41,14.60
2015,08,10,03,42,14.50
2015,08,10,03,43,14.60
2015,08,10,03,44,14.60
2015,08,10,03,45,14.60
2015,08,10,03,46,14.60
2015,08,10,03,47,14.60
2015,08,10,03,48,14.60
2015,08,10,03,49,14.60
2015,08,10,03,50,14.60
2015,08,10,03,51,14.50
2015,08,10,03,52,14.50
2015,08,10,03,53,14.50
2015,08,10,03,54,14.50
2015,08,10,03,55,14.50
2015,08,10,03,56,14.50
2015,08,10,03,57,14.50
2015,08,10,03,58,14.60
2015,08,10,03,59,14.70
2015,08,10,04,00,14.70
2015,08,10,04,01,14.70
2015,08,10,04,02,14.70
2015,08,10,04,03,14.70
2015,08,10,04,04,14.80
2015,08,10,04,05,14.80
2015,08,10,04,06,14.90
2015,08,10,04,07,14.90
2015,08,10,04,08,14.80
2015,08,10,04,09,14.80
2015,08,10,04,10,14.80
2015,08,10,04,11,14.80
2015,08,10,04,12,14.80
2015,08,10,04,13,14.80
2015,08,10,04,14,14.90
2015,08,10,04,15,14.90
2015,08,10,04,16,14.90
2015,08,10,04,17,14.90
2015,08,10,04,18,14.90
2015,08,10,04,19,14.80
2015,08,10,04,20,14.80
2015,08,10,04,21,14.80
2015,08,10,04,22,14.80
2015,08,10,04,23,14.70
2015,08,10,04,24,14.70
2015,08,10,04,25,14.70
2015,08,10,04,26,14.70
2015,08,10,04,27,14.70
2015,08,10,04,28,14.80
2015,08,10,04,29,14.80
2015,08,10,04,30,14.80
2015,08,10,04,31,14.80
2015,08,10,04,32,14.80
2015,08,10,04,33,14.90
2015,08,10,04,34,14.90
2015,08,10,04,35,14.90
2015,08,10,04,36,14.90
2015,08,10,04,37,14.90
2015,08,10,04,38,14.90
2015,08,10,04,39,14.90
2015,08,10,04,40,14.90
2015,08,10,04,41,14.90
2015,08,10,04,42,14.90
2015,08,10,04,43,15.00
2015,08,10,04,44,15.00
2015,08,10,04,45,15.00
2015,08,10,04,46,15.00
2015,08,10,04,47,15.00
2015,08,10,04,48,15.00
2015,08,10,04,49,15.00
2015,08,10,04,50,15.00
2015,08,10,04,51,15.00
2015,08,10,04,52,15.00
2015,08,10,04,53,15.00
2015,08,10,04,54,15.00
2015,08,10,04,55,15.00
2015,08,10,04,56,15.00
2015,08,10,04,57,15.00
2015,08,10,04,58,15.00
2015,08,10,04,59,15.00
2015,08,10,05,00,15.00
2015,08,10,05,01,15.00
2015,08,10,05,02,15.00
2015,08,10,05,03,15.00
2015,08,10,05,04,15.00
2015,08,10,05,05,15.00
2015,08,10,05,06,15.00
2015,08,10,05,07,15.00
2015,08,10,05,08,15.00
2015,08,10,05,09,15.00
2015,08,10,05,10,15.00
2015,08,10,05,11,15.00
2015,08,10,05,12,15.00
2015,08,10,05,13,15.00
2015,08,10,05,14,15.00
2015,08,10,05,15,15.00
2015,08,10,05,16,15.00
2015,08,10,05,17,15.00
2015,08,10,05,18,14.90
2015,08,10,05,19,14.80
2015,08,10,05,20,14.80
2015,08,10,05,21,14.70
2015,08,10,05,22,14.70
2015,08,10,05,23,14.60
2015,08,10,05,24,14.60
2015,08,10,05,25,14.50
2015,08,10,05,26,14.50
2015,08,10,05,27,14.40
2015,08,10,05,28,14.30
2015,08,10,05,29,14.30
2015,08,10,05,30,14.30
2015,08,10,05,31,14.30
2015,08,10,05,32,14.30
2015,08,10,05,33,14.30
2015,08,10,05,34,14.30
2015,08,10,05,35,14.30
2015,08,10,05,36,14.30
2015,08,10,05,37,14.30
2015,08,10,05,38,14.30
2015,08,10,05,39,14.20
2015,08,10,05,40,14.20
2015,08,10,05,41,14.20
2015,08,10,05,42,14.20
2015,08,10,05,43,14.20
2015,08,10,05,44,14.20
2015,08,10,05,45,14.20
2015,08,10,05,46,14.20
2015,08,10,05,47,14.20
2015,08,10,05,48,14.20
2015,08,10,05,49,14.20
2015,08,10,05,50,14.20
2015,08,10,05,51,14.20
2015,08,10,05,52,14.20
2015,08,10,05,53,14.20
2015,08,10,05,54,14.20
2015,08,10,05,55,14.20
2015,08,10,05,56,14.20
2015,08,10,05,57,14.10
2015,08,10,05,58,14.10
2015,08,10,05,59,14.10
2015,08,10,06,00,14.10
2015,08,10,06,01,14.10
2015,08,10,06,02,14.10
2015,08,10,06,03,14.10
2015,08,10,06,04,14.10
2015,08,10,06,05,14.20
2015,08,10,06,06,14.20
2015,08,10,06,07,14.20
2015,08,10,06,08,14.30
2015,08,10,06,09,14.30
2015,08,10,06,10,14.40
2015,08,10,06,11,14.40
2015,08,10,06,12,14.40
2015,08,10,06,13,14.40
2015,08,10,06,14,14.30
2015,08,10,06,15,14.30
2015,08,10,06,16,14.30
2015,08,10,06,17,14.30
2015,08,10,06,18,14.20
2015,08,10,06,19,14.20
2015,08,10,06,20,14.20
2015,08,10,06,21,14.20
2015,08,10,06,22,14.20
2015,08,10,06,23,14.20
2015,08,10,06,24,14.20
2015,08,10,06,25,14.20
2015,08,10,06,26,14.20
2015,08,10,06,27,14.30
2015,08,10,06,28,14.30
2015,08,10,06,29,14.40
2015,08,10,06,30,14.40
2015,08,10,06,31,14.50
2015,08,10,06,32,14.50
2015,08,10,06,33,14.50
2015,08,10,06,34,14.50
2015,08,10,06,35,14.50
2015,08,10,06,36,14.50
2015,08,10,06,37,14.50
2015,08,10,06,38,14.50
2015,08,10,06,39,14.60
2015,08,10,06,40,14.60
2015,08,10,06,41,14.60
2015,08,10,06,42,14.60
2015,08,10,06,43,14.70
2015,08,10,06,44,14.70
2015,08,10,06,45,14.70
2015,08,10,06,46,14.80
2015,08,10,06,47,14.80
2015,08,10,06,48,14.80
2015,08,10,06,49,14.90
2015,08,10,06,50,14.90
2015,08,10,06,51,14.90
2015,08,10,06,52,14.90
2015,08,10,06,53,14.90
2015,08,10,06,54,14.90
2015,08,10,06,55,14.90
2015,08,10,06,56,14.90
2015,08,10,06,57,14.90
2015,08,10,06,58,14.90
2015,08,10,06,59,14.90
2015,08,10,07,00,14.90
2015,08,10,07,01,15.00
2015,08,10,07,02,15.00
2015,08,10,07,03,15.00
2015,08,10,07,04,15.00
2015,08,10,07,05,15.00
2015,08,10,07,06,15.00
2015,08,10,07,07,15.00
2015,08,10,07,08,15.00
2015,08,10,07,09,15.00
2015,08,10,07,10,15.00
2015,08,10,07,11,15.00
2015,08,10,07,12,15.00
2015,08,10,07,13,15.10
2015,08,10,07,14,15.20
2015,08,10,07,15,15.20
2015,08,10,07,16,15.20
2015,08,10,07,17,15.30
2015,08,10,07,18,15.30
2015,08,10,07,19,15.30
2015,08,10,07,20,15.40
2015,08,10,07,21,15.40
2015,08,10,07,22,15.40
2015,08,10,07,23,15.40
2015,08,10,07,24,15.50
2015,08,10,07,25,15.50
2015,08,10,07,26,15.60
2015,08,10,07,27,15.60
2015,08,10,07,28,15.60
2015,08,10,07,29,15.60
2015,08,10,07,30,15.60
2015,08,10,07,31,15.60
2015,08,10,07,32,15.60
2015,08,10,07,33,15.60
2015,08,10,07,34,15.60
2015,08,10,07,35,15.60
2015,08,10,07,36,15.60
2015,08,10,07,37,15.70
2015,08,10,07,38,15.70
2015,08,10,07,39,15.70
2015,08,10,07,40,15.70
2015,08,10,07,41,15.70
2015,08,10,07,42,15.70
2015,08,10,07,43,15.70
2015,08,10,07,44,15.80
2015,08,10,07,45,15.80
2015,08,10,07,46,15.80
2015,08,10,07,47,15.80
2015,08,10,07,48,15.80
2015,08,10,07,49,15.80
2015,08,10,07,50,15.80
2015,08,10,07,51,15.90
2015,08,10,07,52,15.90
2015,08,10,07,53,15.90
2015,08,10,07,54,15.90
2015,08,10,07,55,15.80
2015,08,10,07,56,15.80
2015,08,10,07,57,15.80
2015,08,10,07,58,15.80
2015,08,10,07,59,15.80
2015,08,10,08,00,15.80
2015,08,10,08,01,15.80
2015,08,10,08,02,15.90
2015,08,10,08,03,15.90
2015,08,10,08,04,15.90
2015,08,10,08,05,15.90
2015,08,10,08,06,15.90
2015,08,10,08,07,15.90
2015,08,10,08,08,16.00
2015,08,10,08,09,16.00
2015,08,10,08,10,16.00
2015,08,10,08,11,16.00
2015,08,10,08,12,16.10
2015,08,10,08,13,16.10
2015,08,10,08,14,16.10
2015,08,10,08,15,16.10
2015,08,10,08,16,16.10
2015,08,10,08,17,16.10
2015,08,10,08,18,16.20
2015,08,10,08,19,16.20
2015,08,10,08,20,16.20
2015,08,10,08,21,16.20
2015,08,10,08,22,16.20
2015,08,10,08,23,16.20
2015,08,10,08,24,16.20
2015,08,10,08,25,16.20
2015,08,10,08,26,16.20
2015,08,10,08,27,16.20
2015,08,10,08,28,16.30
2015,08,10,08,29,16.30
2015,08,10,08,30,16.30
2015,08,10,08,31,16.40
2015,08,10,08,32,16.40
2015,08,10,08,33,16.40
2015,08,10,08,34,16.50
2015,08,10,08,35,16.50
2015,08,10,08,36,16.60
2015,08,10,08,37,16.60
2015,08,10,08,38,16.70
2015,08,10,08,39,16.70
2015,08,10,08,40,16.80
2015,08,10,08,41,16.80
2015,08,10,08,42,16.80
2015,08,10,08,43,16.90
2015,08,10,08,44,16.90
2015,08,10,08,45,16.90
2015,08,10,08,46,17.00
2015,08,10,08,47,17.00
2015,08,10,08,48,17.10
2015,08,10,08,49,17.10
2015,08,10,08,50,17.20
2015,08,10,08,51,17.20
2015,08,10,08,52,17.30
2015,08,10,08,53,17.30
2015,08,10,08,54,17.40
2015,08,10,08,55,17.50
2015,08,10,08,56,17.50
2015,08,10,08,57,17.60
2015,08,10,08,58,17.60
2015,08,10,08,59,17.70
2015,08,10,09,00,17.80
2015,08,10,09,01,17.90
2015,08,10,09,02,18.00
2015,08,10,09,03,18.10
2015,08,10,09,04,18.20
2015,08,10,09,05,18.30
2015,08,10,09,06,18.30
2015,08,10,09,07,18.40
2015,08,10,09,08,18.50
2015,08,10,09,09,18.50
2015,08,10,09,10,18.50
2015,08,10,09,11,18.40
2015,08,10,09,12,18.40
2015,08,10,09,13,18.40
2015,08,10,09,14,18.40
2015,08,10,09,15,18.50
2015,08,10,09,16,18.50
2015,08,10,09,17,18.60
2015,08,10,09,18,18.60
2015,08,10,09,19,18.60
2015,08,10,09,20,18.70
2015,08,10,09,21,18.70
2015,08,10,09,22,18.70
2015,08,10,09,23,18.70
2015,08,10,09,24,18.70
2015,08,10,09,25,18.70
2015,08,10,09,26,18.70
2015,08,10,09,27,18.70
2015,08,10,09,28,18.70
2015,08,10,09,29,18.70
2015,08,10,09,30,18.60
2015,08,10,09,31,18.60
2015,08,10,09,32,18.60
2015,08,10,09,33,18.50
2015,08,10,09,34,18.50
2015,08,10,09,35,18.40
2015,08,10,09,36,18.40
2015,08,10,09,37,18.40
2015,08,10,09,38,18.40
2015,08,10,09,39,18.40
2015,08,10,09,40,18.50
2015,08,10,09,41,18.50
2015,08,10,09,42,18.50
2015,08,10,09,43,18.50
2015,08,10,09,44,18.50
2015,08,10,09,45,18.60
2015,08,10,09,46,18.60
2015,08,10,09,47,18.60
2015,08,10,09,48,18.70
2015,08,10,09,49,18.70
2015,08,10,09,50,18.70
2015,08,10,09,51,18.70
2015,08,10,09,52,18.70
2015,08,10,09,53,18.70
2015,08,10,09,54,18.70
2015,08,10,09,55,18.70
2015,08,10,09,56,18.70
2015,08,10,09,57,18.70
2015,08,10,09,58,18.80
2015,08,10,09,59,18.80
2015,08,10,10,00,18.80
2015,08,10,10,01,18.80
2015,08,10,10,02,18.80
2015,08,10,10,03,18.80
2015,08,10,10,04,18.80
2015,08,10,10,05,18.90
2015,08,10,10,06,18.90
2015,08,10,10,07,18.90
2015,08,10,10,08,18.90
2015,08,10,10,09,18.90
2015,08,10,10,10,19.00
2015,08,10,10,11,19.00
2015,08,10,10,12,19.00
2015,08,10,10,13,19.10
2015,08,10,10,14,19.10
2015,08,10,10,15,19.10
2015,08,10,10,16,19.10
2015,08,10,10,17,19.10
2015,08,10,10,18,19.10
2015,08,10,10,19,19.10
2015,08,10,10,20,19.10
2015,08,10,10,21,19.10
2015,08,10,10,22,19.10
2015,08,10,10,23,19.10
2015,08,10,10,24,19.10
2015,08,10,10,25,19.10
2015,08,10,10,26,19.20
2015,08,10,10,27,19.20
2015,08,10,10,28,19.20
2015,08,10,10,29,19.30
2015,08,10,10,30,19.30
2015,08,10,10,31,19.30
2015,08,10,10,32,19.40
2015,08,10,10,33,19.40
2015,08,10,10,34,19.40
2015,08,10,10,35,19.50
2015,08,10,10,36,19.50
2015,08,10,10,37,19.60
2015,08,10,10,38,19.60
2015,08,10,10,39,19.60
2015,08,10,10,40,19.60
2015,08,10,10,41,19.70
2015,08,10,10,42,19.70
2015,08,10,10,43,19.80
2015,08,10,10,44,19.90
2015,08,10,10,45,20.00
2015,08,10,10,46,20.10
2015,08,10,10,47,20.10
2015,08,10,10,48,20.20
2015,08,10,10,49,20.20
2015,08,10,10,50,20.30
2015,08,10,10,51,20.40
2015,08,10,10,52,20.40
2015,08,10,10,53,20.50
2015,08,10,10,54,20.60
2015,08,10,10,55,20.50
2015,08,10,10,56,20.40
2015,08,10,10,57,20.40
2015,08,10,10,58,20.30
2015,08,10,10,59,20.30
2015,08,10,11,00,20.40
2015,08,10,11,01,20.40
2015,08,10,11,02,20.50
2015,08,10,11,03,20.70
2015,08,10,11,04,20.80
2015,08,10,11,05,21.00
2015,08,10,11,06,21.10
2015,08,10,11,07,21.30
2015,08,10,11,08,21.40
2015,08,10,11,09,21.40
2015,08,10,11,10,21.40
2015,08,10,11,11,21.40
2015,08,10,11,12,21.40
2015,08,10,11,13,21.40
2015,08,10,11,14,21.40
2015,08,10,11,16,21.40
2015,08,10,11,17,21.50
2015,08,10,11,18,21.50
2015,08,10,11,19,21.50
2015,08,10,11,20,21.50
2015,08,10,11,21,21.50
2015,08,10,11,22,21.60
2015,08,10,11,23,21.60
2015,08,10,11,24,21.60
2015,08,10,11,25,21.60
2015,08,10,11,26,21.60
2015,08,10,11,27,21.70
2015,08,10,11,28,21.70
2015,08,10,11,29,21.70
2015,08,10,11,30,21.80
2015,08,10,11,31,21.90
2015,08,10,11,32,22.00
2015,08,10,11,33,22.10
2015,08,10,11,34,22.20
2015,08,10,11,35,22.20
2015,08,10,11,36,22.20
2015,08,10,11,37,22.20
2015,08,10,11,38,22.20
2015,08,10,11,39,22.20
2015,08,10,11,40,22.10
2015,08,10,11,41,22.00
2015,08,10,11,42,21.90
2015,08,10,11,43,21.80
2015,08,10,11,44,21.80
2015,08,10,11,45,21.80
2015,08,10,11,46,21.80
2015,08,10,11,47,21.80
2015,08,10,11,48,21.80
2015,08,10,11,49,21.70
2015,08,10,11,50,21.60
2015,08,10,11,51,21.60
2015,08,10,11,52,21.60
2015,08,10,11,53,21.60
2015,08,10,11,54,21.60
2015,08,10,11,55,21.60
2015,08,10,11,56,21.60
2015,08,10,11,57,21.70
2015,08,10,11,58,21.70
2015,08,10,11,59,21.60
2015,08,10,12,00,21.60
2015,08,10,12,01,21.50
2015,08,10,12,02,21.40
2015,08,10,12,03,21.40
2015,08,10,12,04,21.50
2015,08,10,12,05,21.50
2015,08,10,12,06,21.60
2015,08,10,12,07,21.60
2015,08,10,12,08,21.60
2015,08,10,12,09,21.50
2015,08,10,12,10,21.50
2015,08,10,12,11,21.50
2015,08,10,12,12,21.50
2015,08,10,12,13,21.40
2015,08,10,12,14,21.50
2015,08,10,12,15,21.50
2015,08,10,12,16,21.50
2015,08,10,12,17,21.50
2015,08,10,12,18,21.40
2015,08,10,12,19,21.50
2015,08,10,12,20,21.60
2015,08,10,12,21,21.70
2015,08,10,12,22,21.70
2015,08,10,12,23,21.80
2015,08,10,12,24,21.80
2015,08,10,12,25,21.70
2015,08,10,12,26,21.60
2015,08,10,12,27,21.60
2015,08,10,12,28,21.50
2015,08,10,12,29,21.60
2015,08,10,12,30,21.80
2015,08,10,12,31,22.00
2015,08,10,12,32,22.10
2015,08,10,12,33,22.00
2015,08,10,12,34,22.10
2015,08,10,12,35,22.10
2015,08,10,12,36,22.20
2015,08,10,12,37,22.20
2015,08,10,12,38,22.20
2015,08,10,12,39,22.20
2015,08,10,12,40,22.20
2015,08,10,12,41,22.30
2015,08,10,12,42,22.30
2015,08,10,12,43,22.40
2015,08,10,12,44,22.40
2015,08,10,12,45,22.40
2015,08,10,12,46,22.30
2015,08,10,12,47,22.20
2015,08,10,12,48,22.10
2015,08,10,12,49,22.00
2015,08,10,12,50,21.90
2015,08,10,12,51,21.80
2015,08,10,12,52,21.70
2015,08,10,12,53,21.70
2015,08,10,12,54,21.70
2015,08,10,12,55,21.80
2015,08,10,12,56,21.70
2015,08,10,12,57,21.70
2015,08,10,12,58,21.80
2015,08,10,12,59,21.90
2015,08,10,13,00,21.90
2015,08,10,13,01,22.00
2015,08,10,13,02,22.00
2015,08,10,13,03,22.10
2015,08,10,13,04,22.20
2015,08,10,13,05,22.40
2015,08,10,13,06,22.40
2015,08,10,13,07,22.40
2015,08,10,13,08,22.30
2015,08,10,13,09,22.30
2015,08,10,13,10,22.40
2015,08,10,13,11,22.40
2015,08,10,13,12,22.30
2015,08,10,13,13,22.30
2015,08,10,13,14,22.30
2015,08,10,13,15,22.30
2015,08,10,13,16,22.20
2015,08,10,13,17,22.20
2015,08,10,13,18,22.20
2015,08,10,13,19,22.10
2015,08,10,13,20,22.10
2015,08,10,13,21,22.10
2015,08,10,13,22,22.20
2015,08,10,13,23,22.30
2015,08,10,13,24,22.40
2015,08,10,13,25,22.50
2015,08,10,13,26,22.60
2015,08,10,13,27,22.70
2015,08,10,13,28,22.70
2015,08,10,13,29,22.80
2015,08,10,13,30,22.80
2015,08,10,13,31,22.70
2015,08,10,13,32,22.70
2015,08,10,13,33,22.60
2015,08,10,13,34,22.60
2015,08,10,13,35,22.60
2015,08,10,13,36,22.60
2015,08,10,13,37,22.50
2015,08,10,13,38,22.50
2015,08,10,13,39,22.50
2015,08,10,13,40,22.50
2015,08,10,13,41,22.60
2015,08,10,13,42,22.50
2015,08,10,13,43,22.50
2015,08,10,13,44,22.60
2015,08,10,13,45,22.70
2015,08,10,13,46,22.80
2015,08,10,13,47,22.80
2015,08,10,13,48,22.80
2015,08,10,13,49,22.80
2015,08,10,13,50,22.80
2015,08,10,13,51,22.80
2015,08,10,13,52,22.90
2015,08,10,13,53,23.00
2015,08,10,13,54,23.00
2015,08,10,13,55,22.80
2015,08,10,13,56,22.70
2015,08,10,13,57,22.60
2015,08,10,13,58,22.70
2015,08,10,13,59,22.60
2015,08,10,14,00,22.60
2015,08,10,14,01,22.60
2015,08,10,14,02,22.60
2015,08,10,14,03,22.60
2015,08,10,14,04,22.60
2015,08,10,14,05,22.50
2015,08,10,14,06,22.40
2015,08,10,14,07,22.40
2015,08,10,14,08,22.30
2015,08,10,14,09,22.30
2015,08,10,14,10,22.30
2015,08,10,14,11,22.30
2015,08,10,14,12,22.30
2015,08,10,14,13,22.40
2015,08,10,14,14,22.40
2015,08,10,14,15,22.30
2015,08,10,14,16,22.30
2015,08,10,14,17,22.30
2015,08,10,14,18,22.30
2015,08,10,14,19,22.40
2015,08,10,14,20,22.40
2015,08,10,14,21,22.40
2015,08,10,14,22,22.50
2015,08,10,14,23,22.50
2015,08,10,14,24,22.60
2015,08,10,14,25,22.70
2015,08,10,14,26,22.80
2015,08,10,14,27,22.80
2015,08,10,14,28,22.80
2015,08,10,14,29,22.70
2015,08,10,14,30,22.70
2015,08,10,14,31,22.70
2015,08,10,14,32,22.70
2015,08,10,14,33,22.70
2015,08,10,14,34,22.60
2015,08,10,14,35,22.60
2015,08,10,14,36,22.70
2015,08,10,14,37,22.60
2015,08,10,14,38,22.70
2015,08,10,14,39,22.70
2015,08,10,14,40,22.80
2015,08,10,14,41,22.80
2015,08,10,14,42,22.90
2015,08,10,14,43,23.10
2015,08,10,14,44,23.20
2015,08,10,14,45,23.30
2015,08,10,14,46,23.30
2015,08,10,14,47,23.30
2015,08,10,14,48,23.30
2015,08,10,14,49,23.20
2015,08,10,14,50,23.20
2015,08,10,14,51,23.20
2015,08,10,14,52,23.30
2015,08,10,14,53,23.30
2015,08,10,14,54,23.30
2015,08,10,14,55,23.30
2015,08,10,14,56,23.30
2015,08,10,14,57,23.30
2015,08,10,14,58,23.40
2015,08,10,14,59,23.40
2015,08,10,15,00,23.40
2015,08,10,15,01,23.40
2015,08,10,15,02,23.30
2015,08,10,15,03,23.30
2015,08,10,15,04,23.30
2015,08,10,15,05,23.30
2015,08,10,15,06,23.30
2015,08,10,15,07,23.30
2015,08,10,15,08,23.40
2015,08,10,15,09,23.50
2015,08,10,15,10,23.60
2015,08,10,15,11,23.70
2015,08,10,15,12,23.80
2015,08,10,15,13,23.80
2015,08,10,15,14,23.90
2015,08,10,15,15,23.90
2015,08,10,15,16,24.00
2015,08,10,15,17,24.00
2015,08,10,15,18,24.10
2015,08,10,15,19,24.20
2015,08,10,15,20,24.30
2015,08,10,15,21,24.40
2015,08,10,15,22,24.40
2015,08,10,15,23,24.40
2015,08,10,15,24,24.40
2015,08,10,15,25,24.40
2015,08,10,15,26,24.40
2015,08,10,15,27,24.40
2015,08,10,15,28,24.40
2015,08,10,15,29,24.40
2015,08,10,15,30,24.40
2015,08,10,15,31,24.30
2015,08,10,15,32,24.20
2015,08,10,15,33,24.20
2015,08,10,15,34,24.20
2015,08,10,15,35,24.30
2015,08,10,15,36,24.40
2015,08,10,15,37,24.50
2015,08,10,15,38,24.50
2015,08,10,15,39,24.60
2015,08,10,15,40,24.60
2015,08,10,15,41,24.50
2015,08,10,15,42,24.40
2015,08,10,15,43,24.30
2015,08,10,15,44,24.30
2015,08,10,15,45,24.30
2015,08,10,15,46,24.30
2015,08,10,15,47,24.30
2015,08,10,15,48,24.20
2015,08,10,15,49,24.20
2015,08,10,15,50,24.10
2015,08,10,15,51,24.10
2015,08,10,15,52,24.10
2015,08,10,15,53,24.20
2015,08,10,15,54,24.30
2015,08,10,15,55,24.30
2015,08,10,15,56,24.30
2015,08,10,15,57,24.40
2015,08,10,15,58,24.40
2015,08,10,15,59,24.50
2015,08,10,16,00,24.70
2015,08,10,16,01,24.80
2015,08,10,16,02,24.80
2015,08,10,16,03,24.70
2015,08,10,16,04,24.60
2015,08,10,16,05,24.50
2015,08,10,16,06,24.50
2015,08,10,16,07,24.40
2015,08,10,16,08,24.40
2015,08,10,16,09,24.30
2015,08,10,16,10,24.30
2015,08,10,16,11,24.30
2015,08,10,16,12,24.50
2015,08,10,16,13,24.50
2015,08,10,16,14,24.60
2015,08,10,16,15,24.70
2015,08,10,16,16,24.80
2015,08,10,16,17,24.90
2015,08,10,16,18,24.90
2015,08,10,16,19,24.90
2015,08,10,16,20,24.90
2015,08,10,16,21,24.90
2015,08,10,16,22,24.90
2015,08,10,16,23,25.00
2015,08,10,16,24,25.00
2015,08,10,16,25,25.00
2015,08,10,16,26,25.00
2015,08,10,16,27,25.00
2015,08,10,16,28,24.90
2015,08,10,16,29,24.80
2015,08,10,16,30,24.80
2015,08,10,16,31,24.80
2015,08,10,16,32,24.80
2015,08,10,16,33,24.80
2015,08,10,16,34,24.90
2015,08,10,16,35,25.00
2015,08,10,16,36,25.10
2015,08,10,16,37,25.10
2015,08,10,16,38,25.00
2015,08,10,16,39,24.90
2015,08,10,16,40,24.90
2015,08,10,16,41,24.90
2015,08,10,16,42,24.90
2015,08,10,16,43,25.00
2015,08,10,16,44,25.00
2015,08,10,16,45,25.00
2015,08,10,16,46,24.90
2015,08,10,16,47,24.90
2015,08,10,16,48,24.80
2015,08,10,16,49,24.80
2015,08,10,16,50,24.90
2015,08,10,16,51,24.90
2015,08,10,16,52,24.90
2015,08,10,16,53,24.80
2015,08,10,16,54,24.80
2015,08,10,16,55,24.70
2015,08,10,16,56,24.70
2015,08,10,16,57,24.70
2015,08,10,16,58,24.80
2015,08,10,16,59,24.80
2015,08,10,17,00,24.80
2015,08,10,17,01,24.80
2015,08,10,17,02,24.90
2015,08,10,17,03,25.00
2015,08,10,17,04,25.00
2015,08,10,17,05,25.00
2015,08,10,17,06,25.00
2015,08,10,17,07,25.00
2015,08,10,17,08,25.10
2015,08,10,17,09,25.10
2015,08,10,17,10,25.10
2015,08,10,17,11,25.20
2015,08,10,17,12,25.30
2015,08,10,17,13,25.40
2015,08,10,17,14,25.40
2015,08,10,17,15,25.40
2015,08,10,17,16,25.40
2015,08,10,17,17,25.30
2015,08,10,17,18,25.30
2015,08,10,17,19,25.40
2015,08,10,17,20,25.50